| time (UTC) | temp F | wind direction | speed MPH | gust MPH | rain 1hr in | rain 24hr in | rain mn in | humidity % | barometer mb |
| 20260507130802 | 78 | 359 | 0.0 | 14.0 | 0.00 | 0.00 | 0.00 | 69 | 1018.3 |
| 20260507123802 | 78 | 359 | 2.0 | 10.0 | 0.00 | 0.00 | 0.00 | 69 | 1018.3 |
| 20260507120802 | 77 | 338 | 0.0 | 6.0 | 0.00 | 0.00 | 0.00 | 69 | 1018.0 |
| 20260507113802 | 77 | 359 | 0.0 | 13.0 | 0.00 | 0.00 | 0.00 | 69 | 1017.8 |
| 20260507110802 | 77 | 359 | 0.0 | 12.0 | 0.00 | 0.00 | 0.00 | 69 | 1017.4 |
| 20260507103802 | 77 | 359 | 0.0 | 10.0 | 0.00 | 0.00 | 0.00 | 69 | 1016.9 |
| 20260507100802 | 77 | 359 | 0.0 | 10.0 | 0.00 | 0.00 | 0.00 | 69 | 1016.8 |
| 20260507093802 | 77 | 340 | 0.0 | 9.0 | 0.00 | 0.00 | 0.00 | 69 | 1016.7 |
| 20260507090802 | 77 | 359 | 3.0 | 6.0 | 0.00 | 0.00 | 0.00 | 69 | 1017.0 |
| 20260507083802 | 77 | 334 | 0.0 | 10.0 | 0.00 | 0.00 | 0.00 | 69 | 1017.1 |
| 20260507080802 | 77 | 8 | 4.0 | 10.0 | 0.00 | 0.00 | 0.00 | 69 | 1016.9 |
| 20260507073802 | 77 | 326 | 4.0 | 13.0 | 0.00 | 0.00 | 0.00 | 69 | 1017.3 |
| 20260507070802 | 78 | 331 | 0.0 | 10.0 | 0.00 | 0.00 | 0.00 | 69 | 1017.8 |
| 20260507060802 | 78 | 359 | 0.0 | 12.0 | 0.00 | 0.00 | 0.00 | 69 | 1018.1 |
| 20260507053802 | 78 | 343 | 1.0 | 13.0 | 0.00 | 0.00 | 0.00 | 69 | 1018.3 |
| 20260507050802 | 78 | 30 | 4.0 | 16.0 | 0.00 | 0.00 | 0.00 | 69 | 1018.3 |
| 20260507043802 | 78 | 42 | 10.0 | 13.0 | 0.00 | 0.00 | 0.00 | 69 | 1018.5 |
| 20260507040802 | 78 | 359 | 0.0 | 10.0 | 0.00 | 0.00 | 0.00 | 69 | 1018.7 |
| 20260507033802 | 78 | 354 | 3.0 | 13.0 | 0.00 | 0.00 | 0.00 | 69 | 1018.6 |
| 20260507030802 | 78 | 11 | 1.0 | 16.0 | 0.00 | 0.00 | 0.00 | 69 | 1018.3 |
| 20260507023802 | 78 | 359 | 0.0 | 5.0 | 0.00 | 0.00 | 0.00 | 69 | 1018.0 |
| 20260507020802 | 78 | 359 | 2.0 | 9.0 | 0.00 | 0.00 | 0.00 | 69 | 1017.6 |
| 20260507013802 | 78 | 359 | 0.0 | 10.0 | 0.00 | 0.00 | 0.00 | 69 | 1017.6 |
| 20260507010802 | 78 | 359 | 0.0 | 11.0 | 0.00 | 0.00 | 0.00 | 69 | 1017.4 |
| 20260507003802 | 79 | 27 | 0.0 | 14.0 | 0.00 | 0.00 | 0.00 | 69 | 1017.2 |
| 20260507000802 | 79 | 354 | 0.0 | 6.0 | 0.00 | 0.00 | 0.00 | 69 | 1017.2 |
| 20260506233802 | 79 | 15 | 0.0 | 8.0 | 0.00 | 0.00 | 0.00 | 69 | 1017.0 |
| 20260506230802 | 80 | 4 | 0.0 | 13.0 | 0.00 | 0.00 | 0.00 | 69 | 1017.2 |
| 20260506223802 | 80 | 359 | 2.0 | 10.0 | 0.00 | 0.00 | 0.00 | 69 | 1016.7 |
| 20260506220802 | 81 | 347 | 3.0 | 10.0 | 0.00 | 0.00 | 0.00 | 69 | 1016.2 |
| 20260506213802 | 82 | 317 | 0.0 | 8.0 | 0.00 | 0.00 | 0.00 | 69 | 1016.3 |
| 20260506210802 | 81 | 28 | 0.0 | 9.0 | 0.00 | 0.00 | 0.00 | 69 | 1016.6 |
| 20260506203802 | 81 | 354 | 0.0 | 9.0 | 0.00 | 0.00 | 0.00 | 69 | 1016.7 |
| 20260506200802 | 80 | 23 | 0.0 | 9.0 | 0.00 | 0.00 | 0.00 | 69 | 1016.6 |
| 20260506193802 | 81 | 23 | 4.0 | 15.0 | 0.00 | 0.00 | 0.00 | 69 | 1016.8 |
| 20260506190802 | 83 | 316 | 5.0 | 6.0 | 0.00 | 0.00 | 0.00 | 69 | 1017.2 |
| 20260506183802 | 83 | 354 | 0.0 | 9.0 | 0.00 | 0.00 | 0.00 | 69 | 1017.8 |
| 20260506180802 | 82 | 331 | 0.0 | 9.0 | 0.00 | 0.00 | 0.00 | 69 | 1018.3 |
| 20260506173802 | 81 | 341 | 0.0 | 9.0 | 0.00 | 0.00 | 0.00 | 69 | 1018.7 |
| 20260506170802 | 81 | 359 | 0.0 | 5.0 | 0.00 | 0.00 | 0.00 | 69 | 1018.7 |
| 20260506163802 | 82 | 359 | 0.0 | 8.0 | 0.00 | 0.00 | 0.00 | 69 | 1018.9 |
| 20260506160802 | 82 | 335 | 0.0 | 6.0 | 0.00 | 0.00 | 0.00 | 69 | 1019.1 |
| 20260506153802 | 81 | 339 | 0.0 | 8.0 | 0.00 | 0.00 | 0.00 | 69 | 1019.6 |
| 20260506150802 | 81 | 359 | 0.0 | 10.0 | 0.00 | 0.00 | 0.00 | 69 | 1019.8 |
| 20260506143802 | 80 | 18 | 0.0 | 8.0 | 0.00 | 0.00 | 0.00 | 69 | 1019.5 |
| 20260506140802 | 80 | 4 | 0.0 | 10.0 | 0.00 | 0.00 | 0.00 | 69 | 1018.7 |
| 20260506133802 | 79 | 338 | 0.0 | 10.0 | 0.00 | 0.00 | 0.00 | 69 | 1018.7 |